This is the latest recevied weather packets stored in our database for station/object DL1MMS-10. If no packets are shown the sender has not sent any weather packets the latest 10 day(s).
| Time | Temp. | Humidity | Pressure | Rain* | Wind** | Luminosity | Snow |
|---|---|---|---|---|---|---|---|
| 1777704812 | 8.89° C | 71% | 1023.7 hPa | 0 mm | - | - | - |
| 1777704512 | 8.89° C | 72% | 1023.6 hPa | 0 mm | - | - | - |
| 1777704211 | 8.33° C | 72% | 1023.7 hPa | 0 mm | - | - | - |
| 1777703911 | 7.78° C | 72% | 1023.6 hPa | 0 mm | - | - | - |
| 1777703611 | 7.78° C | 73% | 1023.6 hPa | 0 mm | - | - | - |
| 1777703311 | 7.22° C | 73% | 1023.6 hPa | 0 mm | - | - | - |
| 1777703010 | 7.22° C | 74% | 1023.5 hPa | 0 mm | - | - | - |
| 1777702710 | 6.67° C | 75% | 1023.5 hPa | 0 mm | - | - | - |
| 1777702410 | 6.11° C | 75% | 1023.6 hPa | 0 mm | - | - | - |
| 1777702109 | 5.56° C | 75% | 1023.6 hPa | 0 mm | - | - | - |
| 1777701809 | 5.56° C | 76% | 1023.8 hPa | 0 mm | - | - | - |
| 1777701509 | 5° C | 76% | 1023.7 hPa | 0 mm | - | - | - |
| 1777701208 | 5° C | 76% | 1023.7 hPa | 0 mm | - | - | - |
| 1777700908 | 4.44° C | 76% | 1023.7 hPa | 0 mm | - | - | - |
| 1777700608 | 3.89° C | 76% | 1023.7 hPa | 0 mm | - | - | - |
| 1777700308 | 3.89° C | 76% | 1023.6 hPa | 0 mm | - | - | - |
| 1777700007 | 3.33° C | 76% | 1023.7 hPa | 0 mm | - | - | - |
| 1777699707 | 3.33° C | 75% | 1023.8 hPa | 0 mm | - | - | - |
| 1777699407 | 2.78° C | 75% | 1023.8 hPa | 0 mm | - | - | - |
| 1777699107 | 2.78° C | 75% | 1023.8 hPa | 0 mm | - | - | - |
| 1777698806 | 2.78° C | 75% | 1023.8 hPa | 0 mm | - | - | - |
| 1777698506 | 2.78° C | 75% | 1023.8 hPa | 0 mm | - | - | - |
| 1777698206 | 2.22° C | 75% | 1023.7 hPa | 0 mm | - | - | - |
| 1777697906 | 2.22° C | 75% | 1023.7 hPa | 0 mm | - | - | - |
| 1777697605 | 2.22° C | 75% | 1023.7 hPa | 0 mm | - | - | - |
* Rain latest hour (hover to see other rain measurements)
** Current wind speed in m/s (hover to see current wind gust speed)